Rbgn^[z[y[W
メイン
   新天体発見情報
     Comet C/2018 A3 (ATLAS)
投稿するにはまず登録を

スレッド表示 | 新しいものから 前のトピック | 次のトピック | 下へ
投稿者 スレッド
佐藤裕久
投稿日時: 2018-1-28 20:58
モデレータ
登録日: 2005-6-12
居住地: 日本
投稿: 1904
オンライン
Comet C/2018 A3 (ATLAS)

1月10.6日UT、小惑星地球衝突最終警報システム Asteroid Terrestrial-impact Last Alert System 
(ATLAS)調査プログラムのコースに、ハワイ, Mauna LoaにあるATLAS 0.5-m f/2 Schmidt望遠鏡で得
たCCD画像から小惑星らしい天体を発見した。
小惑星センターのPCCP webpageに公表後、佐藤英貴氏(東京都文京区, iTelescope Sierra Remote
天文台,0.61-m f/6.5 アストログラフ, Auberry, カリフォルニア州, 遠隔操作;1月13.53日UT、60秒
露出8枚スタックでは、8" のコマが見える。5".0の円形範囲で測定したこの彗星のw-バンド全光度は
18.6等であった)らCCD位置観測者によって彗星状と観測された。

発見位置は次のとおり、

     2018 UT             R.A. (2000) Decl.       Mag.
     Jan. 10.60959   13 02 24.12   + 7 51 31.5   18.7
          10.61762   13 02 24.05   + 7 51 36.4   18.4
          10.62559   13 02 23.95   + 7 51 40.8   18.6
          10.63381   13 02 23.80   + 7 51 45.2   18.4

放物線軌道要素と位置推算表は次のとおり、

Orbital elements:
    C/2018 A3 (ATLAS)
T 2019 Jan. 12.10384 TT                                 MPCW
q   3.2523666            (2000.0)            P               Q
                   Peri.   86.86616     -0.24099483     +0.95724599
                   Node   194.30612     +0.40688817     +0.24932904
e   1.0            Incl.  139.64477     +0.88111492     +0.14668041
From 65 observations 2018 Jan. 10-17.

Ephemeris:
    C/2018 A3 (ATLAS)
Date    TT    R. A. (2000) Decl.     Delta      r     Elong.  Phase   m1
2017 12 18    13 02 40.1 +04 48 57   5.0120  4.8299    73.7    11.3  18.8
...
2018 01 02    13 03 23.5 +06 33 54   4.6446  4.7355    89.3    12.0  18.6
...
2018 01 10    13 02 30.6 +07 45 35   4.4483  4.6856    97.9    12.0  18.4
...
2018 01 16    13 01 09.6 +08 47 17   4.3037  4.6484   104.5    11.8  18.3
2018 01 17    13 00 52.4 +08 58 15   4.2799  4.6422   105.6    11.8  18.3
2018 01 18    13 00 34.0 +09 09 25   4.2562  4.6361   106.7    11.7  18.3
...
2018 01 24    12 58 19.5 +10 20 39   4.1174  4.5991   113.5    11.3  18.2
...
2018 02 01    12 54 11.3 +12 06 52   3.9425  4.5502   122.6    10.5  18.1
...
2018 02 16    12 42 33.1 +15 58 10   3.6595  4.4595   139.8     8.2  17.8

(CBET 4476、MPEC 2018-B18)


スレッド表示 | 新しいものから 前のトピック | 次のトピック | トップ

投稿するにはまず登録を
 
© 1999 Tsutomu Seki.